Regional Weather Roundup
Issued by NWS

Home | Current Version | Previous Version | Graphics & Text | Print | Product List | Glossary On
Versions: 1 2 3 4 5 6 7 8 9 10 11 12 13 14 15 16 17 18 19 20 21 22 23 24 25 26 27 28 29 30 31 32 33 34 35 36 37 38 39 40 41 42 43 44 45 46 47 48 49 50
000
ASUS45 KTFX 291919
RWRMT
MONTANA HOURLY WEATHER ROUNDUP
NATIONAL WEATHER SERVICE GREAT FALLS MT
119 PM MDT SUN MAR 29 2015

NOTE: "FAIR" INDICATES FEW OR NO CLOUDS BELOW 12000 FEET WITH NO
SIGNIFICANT WEATHER AND/OR OBSTRUCTIONS TO VISIBILITY.

* THESE STATIONS ARE NOT UNDER NWS QUALITY CONTROL. THEY DO NOT
   REPORT WEATHER SUCH AS PRECIPITATION OR FOG.

MTZ001>007-043-292000-
WEST OF THE DIVIDE
CITY           SKY/WX    TMP DP  RH WIND       PRES   REMARKS
KALISPELL      CLOUDY    52  34  50 S10       30.19F
MISSOULA       PTCLDY    50  28  43 VRB3      30.26F
BUTTE          PTCLDY    48  18  30 VRB3      30.23F
MULLAN PASS    CLOUDY    34  28  79 VRB6      30.24S WCI  29
* ESSEX        N/A       47  30  52 S8         N/A
* EUREKA APT   PTSUNNY   52  34  50 SE7        N/A
* HAMILTON APT PTCLDY    55  23  29 S7        30.23F
* LIBBY APT    PTCLDY    55  34  45 S3        30.22F
* LINCOLN      N/A       45  24  44 SW5G13     N/A
* LOOKOUT PASS N/A       42  32  68 SE3        N/A
* POLSON       N/A       55  33  43 SW3G11     N/A
* SEELEY LAKE  N/A       49  29  46 NW3        N/A
* THOMP F APT  PTCLDY    45  16  31 S9G14      N/A
* YAAK HILL    N/A       55  33  43 S2         N/A
$$

MTZ008-052>055-292000-
SOUTHWEST MONTANA
CITY           SKY/WX    TMP DP  RH WIND       PRES   REMARKS
BOZEMAN        CLOUDY    52  21  30 N6        30.23F
DILLON         PTCLDY    52  12  20 SW14      30.23F
* W YELLOWSTON PTSUNNY   46  11  24 SW4G10     N/A
* BOULDER HILL N/A       43  19  38 S6         N/A
* HOMESTAKE PS N/A       44  14  30 W7G12      N/A
* MONIDA PASS  N/A       42  15  33 SE17G24    N/A
* RAYNOLDS PAS N/A       43  27  53 SE12       N/A
* WHITEHALL    N/A       52  22  31 SW11G20    N/A
* WISE RIVER   N/A       48  18  30 W4G9       N/A
$$

MTZ009>010-012-014-046-048-049-054-292000-
EAST SLOPES AND CENTRAL MONTANA
CITY           SKY/WX    TMP DP  RH WIND       PRES   REMARKS
CUT BANK       CLOUDY    50  28  43 W33G38    30.04F
GREAT FALLS    CLOUDY    52  23  32 SW22G29   30.11F
HELENA         CLOUDY    52  19  27 NW3       30.20F
MALMSTROM AFB  CLOUDY    52  23  32 SW24G29   30.12F
* CONRAD       CLOUDY    55  27  34 SW12       N/A
* DEARBORN     N/A       53  21  29 S8G17      N/A
* EAST GLACIER N/A       45  28  51 W20G27     N/A
* MONARCH      N/A       45  17  32 S15G26     N/A
* PENDROY      N/A       48  26  42 W22G27     N/A
* ROGERS PASS  N/A       39  20  46 SE15G31    N/A   WCI  31
* SAINT MARY   N/A       46  29  52 S9G24      N/A
* WHITE SULPH  N/A       51  18  27 W5G15      N/A
$$

MTZ011-013-016-021-035-040-045-047-050-051-292000-
NORTH CENTRAL MONTANA
CITY           SKY/WX    TMP DP  RH WIND       PRES   REMARKS
HAVRE          CLOUDY    57  34  42 W25G32    30.03F
LEWISTOWN      CLOUDY    54  27  35 W13       30.12F
* N BAR RANCH  SUNNY     50  23  35 W15G25    30.13F
* CHINOOK      CLOUDY    57  30  36 W17G23    30.02F
* FORT BENTON  CLOUDY    57  25  29 SW21G30   30.09F
* CHESTER      N/A       55  26  33 W17G27     N/A
* DENTON       N/A       54  25  33 W22G28     N/A
* GEYSER       N/A       52  20  28 W19G26     N/A
* JUDITH GAP   N/A       52  21  30 W17        N/A
* LOMA         N/A       56  26  32 SW19G32    N/A
$$

MTZ017>020-022>027-061-062-292000-
NORTHEAST MONTANA
CITY           SKY/WX    TMP DP  RH WIND       PRES   REMARKS
GLASGOW        PTCLDY    57  32  39 W17G26    30.04F
GLENDIVE       SUNNY     57  28  33 W13G23    30.08F
JORDAN         PTCLDY    57  28  33 W13       30.08F
SIDNEY         PTSUNNY   57  28  33 W13G20    30.05F
WOLF POINT     SUNNY     59  36  42 W16       30.05F
* BEAVER HILL  N/A       55  28  35 W19G25     N/A
* CIRCLE       N/A       57  36  46 W15        N/A
* LINDSAY DVD  N/A       54  31  42 W14G22     N/A
* NAVAJO       N/A       51  35  54 W17G26     N/A
* PLENTYWOOD A SUNNY     54  36  51 W13G21    30.02F
* POPLAR APT   SUNNY     55  36  49 W14G20    30.05F
* SACO         N/A       57  37  47 SW16G27    N/A
$$

MTZ028>042-056>058-292000-
SOUTHCENTRAL AND SOUTHEAST MONTANA
CITY           SKY/WX    TMP DP  RH WIND       PRES   REMARKS
BAKER          SUNNY     55  36  49 W22G28    30.10F
BILLINGS       CLOUDY    57  19  23 W14G22    30.15F
LIVINGSTON     PTCLDY    59  16  18 W20G29    30.18F
MILES CITY     SUNNY     61  30  31 W17G26    30.10F
* BIG TIMBER A PTCLDY    54  14  20 W24G35    30.17F
* FORSYTH APT  PTCLDY    59  28  31 W14G24    30.11F
* ALZADA       N/A       56  29  36 SW13G18    N/A
* HYSHAM       N/A       56  21  26 W17G31     N/A
* LAME DEER    N/A       53  24  32 SW14G24    N/A
* REED POINT   N/A       57  24  28 W16G23     N/A
* ROSCOE HILL  N/A       51  15  24 NW1G8      N/A
$$

REGIONAL REPORTS...DAKOTAS
CITY           SKY/WX    TMP DP  RH WIND       PRES   REMARKS
WILLISTON      SUNNY     55  37  51 W16       30.03F
DICKINSON      PTCLDY    54  34  47 W16       30.05F
BEACH          SUNNY     55  28  35 NW17G26   30.08F
CROSBY         SUNNY     54  32  43 W17G23    30.00F
TIOGA          PTCLDY    54  32  43 W22G28    30.03F
WATFORD CITY   SUNNY     54  36  51 W17G22    30.02F
BISMARCK       SUNNY     55  23  29 NW12G30   30.05F
GRAND FORKS    SUNNY     52  28  40 N28G36    29.86S
BUFFALO SD     SUNNY     57  32  39 NW24G35   30.04F
RAPID CITY     SUNNY     61  30  31 N18G26    30.14F
$$

REGIONAL REPORTS...WYOMING/IDAHO/WASHINGTON
CITY           SKY/WX    TMP DP  RH WIND       PRES   REMARKS
GILLETTE       SUNNY     55  25  31 SW13G21   30.17F
SHERIDAN       PTCLDY    55  25  31 VRB3      30.15F
CODY           PTSUNNY   55  16  21 NE7       30.17F
YELLOWSTONE LA PTSUNNY   43   7  22 VRB6G18   30.31F
SALMON         PTCLDY    48  23  37 CALM      30.25F
MULLAN PASS    CLOUDY    34  28  79 VRB6      30.24S WCI  29
SAND POINT     CLOUDY    52  37  57 SE6       30.23F
SPOKANE        PTSUNNY   54  37  53 SE13      30.22F
$$

REGIONAL REPORTS...ALBERTA
CITY           SKY/WX    TMP DP  RH WIND       PRES   REMARKS
CALGARY        PTSUNNY   57  27  32 S15       29.86F
LETHBRIDGE     PTSUNNY   55  28  35 W44G53    29.91F
MEDICINE HAT   PTSUNNY   59  32  36 W18G28    29.93F
EDMONTON       PTSUNNY   54  36  51 S6        29.79F
WATERTON GATE  N/A       50  28  43 SW21G35    N/A
CARDSTON       N/A       54  30  40 W18G29     N/A
MILK RIVER     N/A       52  28  40 W21G28     N/A
$$

REGIONAL REPORTS...SASKATCHEWAN
CITY           SKY/WX    TMP DP  RH WIND       PRES   REMARKS
SWIFT CURRENT  SUNNY     55  32  42 SW16      29.92F
REGINA         SUNNY     50  39  66 W12       29.98F
VAL MARIE      N/A       57  32  39 W20G28     N/A
ASSINIBOIA     N/A       54  28  37 W12G17     N/A
CORONACH       N/A       55  28  35 W13        N/A

$$




USA.gov is the U.S. government's official web portal to all federal, state and local government web resources and services.